STARLINK-31750 (59552 NORAD) Tracking and Keplerian Element Data

This shows tracking and keplerian element data for the satellite.

Feedback or suggestion? Click here.




ElementValue
Catalog59552
NameSTARLINK-31750
Epoch Orbit903
Epoch Day159.91173956
Epoch Year2024
RAAN28.2272
Inclination42.9989
Eccentricity0.0001382
Argument of Perigee272.372
Mean Anonmoly87.6978
Mean Motion15.40739124
Decay Rate0.00038529
L11 59552U 24074U 24159.91173956 .00038529 00000+0 92374-3 0 9999
L22 59552 42.9989 28.2272 0001382 272.3720 87.6978 15.40739124 9032



Live tracking and technical data element details for STARLINK-31750 (NORAD 59552). STARLINK-31750 can be tracked NOW for your location showing map with azimuth and elevation plus other details from your city location.







IsCatalogInMostPopularTable: catalog: 59552, numindb: 12
Update: records affected: 1



GetName: 59552 STARLINK-31750

Hit Count: updated at: Fri, 14 Jun 2024 18:22:11 GMT